User: anonymous   Login
Location: Unspecified
(0.0000°N, 0.0000°E)
Time: 18:56:08
(UTC+00:00)
Language:

Sich 1 - Orbit

View from above orbital plane
View from above orbital plane
View from above satellite
View from above satellite

Ground track
Ground track

The orbit data is extracted from the following two-line orbital elements,

1 23657U 95046A   17084.91190543 +.00000291 +00000-0 +30535-4 0  9991
2 23657 082.5290 339.0343 0022324 001.7692 358.3599 14.85790193164802
Epoch (UTC): 25 March 2017 21:53:08
Eccentricity: 0.0022324
inclination: 82.5290°
perigee height: 595 km
apogee height: 627 km
right ascension of ascending node: 339.0343°
argument of perigee: 1.7692°
revolutions per day: 14.85790193
mean anomaly at epoch: 358.3599°
orbit number at epoch: 16480

The dashed part of the orbit path shows where the satellite is in the earth's shadow,  

DLR